Weather History for KYKM - November, 2013

Change the Weather History Date:

Tuesday, November 5, 2013

  Actual Average Record
Temperature  
Mean Temperature 38 °F 41 °F  
Max Temperature 48 °F 54 °F 69 °F (1949)
Min Temperature 27 °F 29 °F 13 °F (2003)
Degree Days  
Heating Degree Days 27 24  
Month to date heating degree days 110 115  
Since 1 July heating degree days 726 819  
Cooling Degree Days 0 0  
Month to date cooling degree days 0 0  
Year to date cooling degree days 970 472  
Moisture  
Dew Point 33 °F    
Average Humidity 73    
Maximum Humidity 92    
Minimum Humidity 53    
Precipitation  
Precipitation 0.02 in 0.03 in 0.58 in (2005)
Month to date precipitation 0.17 0.14  
Year to date precipitation 4.96 5.81  
Snow  
Snow 0.00 in 0.10 in 0.60 in (1973)
Month to date snowfall 0.0 0.1  
Year to date snowfall 1.1 8.8  
Since 1 July snowfall 0.0 0.2  
Snow Depth 0.00 in    
Sea Level Pressure  
Sea Level Pressure 30.15 in    
Wind  
Wind Speed 3 mph (West)    
Max Wind Speed 8 mph    
Max Gust Speed 9 mph    
Visibility 9 miles    
Events Rain    
T = Trace of Precipitation, MM = Missing Value Source: NWS Daily Summary

Daily Weather History Graph

Daily Weather History Graph

Search for Another Location

Airport or City:

Trip Planner

Search our weather history database for the weather conditions in past years. The results will help you decide how hot, cold, wet, or windy it might be!

Date:

Astronomy

Nov. 05, 2013 Rise Set
Actual Time 6:50 AM PST 4:40 PM PST
Civil Twilight 6:18 AM PST 5:12 PM PST
Nautical Twilight 5:42 AM PST 5:48 PM PST
Astronomical Twilight 5:07 AM PST 6:23 PM PST
Moon 9:15 AM PST (11/5) 6:41 PM PST (11/5)
Length of Visible Light 10h 54m
Length of Day
9h 50m
Waxing Crescent, 7% of the Moon is Illuminated
Nov 5
Waxing Crescent
Nov 9
First Quarter
Nov 17
Full
Nov 25
Last Quarter
Dec 2
New

Hourly Weather History & Observations

Time (PST) Temp. Windchill Dew Point Humidity Pressure Visibility Wind Dir Wind Speed Gust Speed Precip Events Conditions
12:53 AM 41.0 °F 37.1 °F 28.0 °F 60% 30.15 in 10.0 mi WNW 5.8 mph - N/A   Overcast
1:53 AM 37.9 °F 32.7 °F 33.1 °F 83% 30.15 in 9.0 mi West 6.9 mph - 0.01 in Rain Light Rain
2:06 AM 37.4 °F 32.1 °F 33.8 °F 87% 30.13 in 10.0 mi WNW 6.9 mph - 0.01 in Rain Light Rain
2:53 AM 37.0 °F 34.5 °F 33.1 °F 86% 30.14 in 10.0 mi WSW 3.5 mph - 0.01 in   Overcast
3:53 AM 37.9 °F 34.4 °F 33.1 °F 83% 30.14 in 10.0 mi WSW 4.6 mph - N/A   Overcast
4:53 AM 37.9 °F 34.4 °F 34.0 °F 86% 30.15 in 10.0 mi West 4.6 mph - N/A   Overcast
5:53 AM 37.9 °F 35.5 °F 34.0 °F 86% 30.14 in 10.0 mi West 3.5 mph - N/A   Overcast
6:53 AM 39.0 °F 35.7 °F 33.1 °F 79% 30.14 in 10.0 mi West 4.6 mph - N/A   Overcast
7:53 AM 39.0 °F 35.7 °F 33.1 °F 79% 30.15 in 10.0 mi West 4.6 mph - N/A   Overcast
8:53 AM 41.0 °F 38.0 °F 33.1 °F 73% 30.15 in 10.0 mi WSW 4.6 mph - N/A   Overcast
9:53 AM 42.1 °F 39.2 °F 33.1 °F 70% 30.15 in 10.0 mi NNW 4.6 mph - N/A   Overcast
10:53 AM 43.0 °F - 34.0 °F 71% 30.15 in 10.0 mi Calm Calm - N/A   Overcast
12:53 PM 46.0 °F - 35.1 °F 66% 30.12 in 10.0 mi Calm Calm - N/A   Overcast
1:53 PM 46.9 °F - 35.1 °F 63% 30.11 in 10.0 mi Calm Calm - N/A   Mostly Cloudy
2:53 PM 46.9 °F - 36.0 °F 66% 30.11 in 10.0 mi Calm Calm - N/A   Scattered Clouds
3:53 PM 46.9 °F - 36.0 °F 66% 30.12 in 10.0 mi Calm Calm - N/A   Mostly Cloudy
4:53 PM 45.0 °F - 36.0 °F 71% 30.13 in 10.0 mi Calm Calm - N/A   Mostly Cloudy
5:00 PM 44.6 °F - 35.6 °F 71% 30.11 in 10.0 mi Calm Calm - N/A   Overcast
5:50 PM 41.0 °F 39.0 °F 35.6 °F 81% 30.13 in 10.0 mi SW 3.5 mph - N/A   Scattered Clouds
5:53 PM 41.0 °F - 35.1 °F 79% 30.15 in 10.0 mi Calm Calm - N/A   Partly Cloudy
6:53 PM 35.1 °F 30.1 °F 30.9 °F 85% 30.17 in 9.0 mi West 5.8 mph - N/A   Scattered Clouds
7:04 PM 33.8 °F 29.6 °F 30.2 °F 87% 30.15 in 7.0 mi West 4.6 mph - N/A   Mostly Cloudy
7:53 PM 34.0 °F 28.8 °F 30.9 °F 89% 30.18 in 7.0 mi West 5.8 mph - N/A   Scattered Clouds
8:53 PM 30.9 °F 25.2 °F 28.9 °F 92% 30.21 in 7.0 mi West 5.8 mph - N/A   Partly Cloudy
9:53 PM 30.0 °F 26.5 °F 28.0 °F 92% 30.23 in 5.0 mi West 3.5 mph - N/A   Clear
10:53 PM 30.9 °F 25.2 °F 28.9 °F 92% 30.24 in 5.0 mi West 5.8 mph - N/A   Clear
11:53 PM 28.0 °F - 26.1 °F 92% 30.26 in 5.0 mi Calm Calm - N/A   Clear